Starlink 5346

operational
NORAD ID: 56518 Int'l Des: 2023-065 Owner: SPXS Country: US Constellation: starlink
LEOCIRCULAR

关于 Starlink 5346

正在加载描述...

实时位置

正在加载3D地球...

即将过境

高度历史

Altitude vs Time

uPlot chart will show altitude changes over time

两行轨道根数

1 56518U 23065R 25259.51041992 -.00000252 00000-0 -36085-5 0 9993
2 56518 43.0033 76.7821 0001223 271.1043 88.9659 15.02533439130427
Epoch: Sep 16, 2025 • Age: 35 hours

当前状态

高度 561.8 km
速度 7.59 km/s
星下点 37.95°N, 133.36°E
发射日期 May 14, 2023
运行时间 2.3 years
类型 internet

技术详情

分类 Payload
质量 305.00 kg
干质量 290.00 kg
总质量 305.00 kg
长度 0.20 m
直径 2.80 m
跨度 9.00 m
形状 Box + pan
制造商 SPXS
平台类型 Starlink
阶段状态 In Orbit
所有者/国家 SPXS/US

大型星座

Loading constellations...